www.pogodaiklimat.ru

Погода и климат >> Архив погоды >> Аргентина >> Трелью


ПОГОДА в Трелью

  • Прогноз погоды в Трелью
  • Монитор погоды в Трелью

АРХИВ ПОГОДЫ в Трелью

Время (UTC), дата Ветер
(напр.,м/с)
 
Видим.   Явления Облачность Т
(С)
Тd
(С)
f
(%)
Тe
(С)
Тes
(С)
Комфортность P
(гПа)
Po
(гПа)
Тmin
(С)
Tmax
(С)
R
(мм)
R24
(мм)
S
(см)
09 14.04 З 6 30 км 3/0
[Ci fib]
+8.7 -0.1 54 +5 +5 1007.3 1002.2
12 14.04 З 8 30 км 1/1 1050 м
[Sc Ci fib]
+10.3 -3.2 39 +7 +7 1010.2 1005.0 +6.7 +17.0 0.0
15 14.04 З 9 30 км 4/4 1050 м
[Sc]
+14.5 -5.4 25 +12 +13 1012.7 1007.6
18 14.04 З 7 30 км 5/5 1050 м
[Sc]
+15.8 -3.9 26 +14 +15 1013.4 1008.2
21 14.04 З 5 30 км 3/3 1050 м
[Sc Ci fib]
+16.8 -1.9 28 +16 +16 1014.1 1008.9
00 15.04 З 3 30 км 1/0
[Ac As Ci sp]
+9.1 -0.8 50 +7 +7 1016.0 1010.8 +8.8 +17.3
03 15.04 З 3 30 км 1/0
[Ci fib]
+7.0 -1.5 55 +4 +4 1018.1 1012.9
06 15.04 СЗ 4 30 км ясно +8.0 -2.8 46 +5 +5 1018.9 1013.7
09 15.04 С 3 30 км ясно +4.8 -1.8 62 +2 +2 1019.2 1014.0
12 15.04 СЗ 4 30 км 1/0
[Cs]
+7.4 -1.9 52 +5 +5 1020.4 1015.2 +4.2 +12.4
15 15.04 З 6 30 км 4/0
[Ac As Cs]
+16.0 -0.7 32 +15 +17 1020.3 1015.1
18 15.04 З 5 30 км 6/0
[Cs]
+20.1 -1.2 24 +20 +23 1017.4 1012.2
21 15.04 СЗ 2 30 км 8/0
[Ac lent Cs]
+19.4 +3.2 34 +20 +20 1015.5 1010.2
00 16.04 штиль 0 30 км 6/0
[Cs]
+14.0 +5.9 58 +14 +14 1014.5 1009.3 +7.2 +21.4
03 16.04 СЗ 3 30 км 5/0
[Cs]
+10.8 +4.7 66 +9 +9 1012.8 1007.6
06 16.04 СЗ 4 30 км 4/0
[Ac trans Cs]
+12.0 +0.2 44 +10 +10 1010.6 1005.5
09 16.04 З 4 30 км 5/0
[Cs]
+12.7 -1.8 36 +11 +11 1008.8 1003.7
12 16.04 СЗ 5 30 км 9/0
[Ac lent Cs]
+12.8 +1.1 45 +11 +11 1007.2 1002.1 +9.3 +14.0
15 16.04 С 5 30 км 10/0
[Ac As Cs]
+18.2 +1.4 32 +18 +19 1005.3 1000.2
18 16.04 СЗ 6 30 км 9/0
[Ac As Cs]
+21.0 +1.0 26 +21 +22 комфорт 1002.8 997.7
21 16.04 С 3 30 км 9/0
[Ac lent Cs]
+21.6 +0.7 25 +21 +21 комфорт 1001.3 996.2
00 17.04 С 3 30 км 6/0
[Ac lent Cs]
+17.3 +2.2 36 +17 +17 1001.8 996.6 +12.7 +22.8
03 17.04 З 3 30 км 6/0
[Ac lent Cs]
+17.0 +3.3 40 +17 +17 1002.2 997.2
06 17.04 З 5 30 км 5/0
[Ac lent Cs]
+17.4 +6.6 49 +17 +17 1002.2 997.2
09 17.04 З 5 30 км 4/0
[Ac lent Cs]
+18.0 +6.9 48 +18 +18 1003.3 998.2
12 17.04 З 6 30 км 3/0
[Ac As Cs]
+16.7 +6.4 51 +16 +16 1005.9 1000.8 +14.9 +18.6
15 17.04 З 8 30 км 4/0
[Ac lent Cs]
+19.4 +0.8 29 +19 +20 1008.4 1003.3
18 17.04 ЮЗ 5 30 км 4/0
[Ci fib]
+20.8 -2.2 21 +21 +23 комфорт 1008.3 1003.3
21 17.04 ЮВ 6 18 км дым 4/0
[Ac lent Cs]
+18.4 +3.7 38 +18 +18 1009.8 1004.6
00 18.04 В 2 30 км 3/0
[Cs]
+10.8 +6.1 73 +10 +10 1012.0 1006.9 +10.5 +21.4
03 18.04 С 2 30 км ясно +8.7 +5.4 80 +7 +7 1011.8 1006.6
06 18.04 З 4 30 км ясно +10.6 +7.3 80 +8 +8 1010.1 1005.0
09 18.04 СЗ 3 30 км ясно +9.0 +6.4 84 +7 +7 1008.9 1003.8
12 18.04 СЗ 4 30 км 1/0
[Ac lent Ci sp]
+8.1 +2.4 67 +5 +5 1008.2 1003.0 +4.7 +11.2
15 18.04 З 7 30 км 1/0
[Ci sp]
+16.4 +1.0 35 +15 +17 1007.9 1002.8
18 18.04 З 5 30 км 3/0
[Ac cuf Ci fib]
+19.4 -0.6 26 +19 +22 1006.4 1001.3
21 18.04 З 4 30 км 3/0
[Cs]
+20.0 +0.9 28 +20 +20 1006.3 1001.2
00 19.04 ЮВ 3 30 км 4/0
[Ac As Cs]
+13.2 +9.1 76 +12 +12 1007.6 1002.4 +7.9 +20.3
03 19.04 штиль 0 30 км 4/0
[Cs]
+9.2 +6.2 81 +8 +8 1009.5 1004.2
06 19.04 З 4 30 км 8/0
[Cs]
+9.2 +6.2 81 +6 +6 1009.8 1004.6
09 19.04 З 3 30 км 5/0
[Ci fib]
+6.8 +1.9 71 +4 +4 1009.9 1004.8
12 19.04 СЗ 1 30 км 4/0
[Ac As]
+7.4 +2.1 69 +7 +7 1011.2 1006.0 +5.9 +13.2
15 19.04 З 5 30 км 3/0
[Ac As]
+14.6 0.0 37 +13 +16 1011.0 1005.8
18 19.04 З 6 30 км 3/0
[Ac lent Ci fib]
+20.0 +2.3 31 +20 +22 1010.4 1005.3
21 19.04 Ю 6 30 км 1/0
[Ac lent Ci fib]
+16.6 +5.5 48 +16 +16 1013.1 1007.8
00 20.04 штиль 0 30 км ясно +13.0 +8.2 73 +13 +13 1016.0 1010.8 +7.3 +21.0
03 20.04 З 2 30 км ясно +7.2 +4.7 84 +5 +5 1017.7 1012.5
06 20.04 СЗ 2 30 км ясно +5.6 +4.2 91 +4 +4 1018.6 1013.4
09 20.04 З 3 30 км ясно +5.0 +4.1 94 +2 +2 1018.6 1013.4
12 20.04 СЗ 1 30 км ясно +5.6 +2.2 79 +4 +5 1018.7 1013.4 +2.7 +13.0
15 20.04 СЗ 3 30 км ясно +18.4 +4.8 41 +19 +24 1017.6 1012.4
18 20.04 З 5 30 км ясно +22.8 +3.7 29 +23 +26 комфорт 1014.8 1009.6
21 20.04 ЮЗ 2 30 км ясно +22.4 +1.6 25 +22 +22 комфорт 1014.6 1009.4
00 21.04 штиль 0 30 км ясно +14.0 +7.1 63 +14 +14 1016.5 1011.3 +5.3 +24.0
03 21.04 СЗ 2 30 км ясно +8.9 +5.1 77 +7 +7 1017.6 1012.4
06 21.04 СЗ 2 30 км 1/0
[Cs]
+8.1 +6.6 90 +7 +7 1019.2 1014.0

 

Местоположение метеостанции Трелью (Аргентина): широта -43.20 долгота -65.26 высота над уровнем моря 43 м.

В архиве по умолчанию представлена погода в Трелью за последнюю неделю. Архивные данные за месяц целиком и за предыдущие месяцы, начиная с января 2011 года, Вы можете получить, выбрав интересующий диапазон дат из раскрывающегося списка и нажав кнопку "Ввод!".


*Определитесь, кто Вы:
робот инопланетянин человек

Внимание! Время в таблицах - всемирное. Для получения местного времени необходимо прибавить поправку, которая равна -3 ч.

Смотрите также архив погоды в соседних городах и на ближайших метеорологических станциях:

Погода в Сан-Антонио Оэсте (Аргентина) (270 км)
Погода во Вьедме (Аргентина) (321 км)
Погода в Комодоро Ривадавии (Аргентина) (338 км)
Погода в Макичао (Аргентина) (359 км)
Погода в Эскеле (Аргентина) (479 км)
Погода в Альто-Палене (Чили) (529 км)
Погода в Неукене (Аргентина) (530 км)
Погода в Эль-Болсоне (Аргентина) (530 км)
Погода в Футалеуфу (Чили) (531 км)
Погода в Сан-Карлос-де-Барилоче (Аргентина) (537 км)

Пояснения к столбцам:

Ветер - указаны скорость ветра в м/с - средняя за 10 мин, порывы в срок и между сроками (в фигурных скобках) и направление, откуда дует ветер: С - северный, СВ - северо-восточный, В - восточный, ЮВ - юго-восточный, Ю - южный, ЮЗ - юго-западный, З - западный, СЗ - северо-западный.
Видимость - горизонтальная дальность видимости в метрах или километрах. При видимости от 1 до 10 км при отсутствии осадков обычно наблюдается дымка, при ухудшении видимости до 1 км и менее - туман. В сухую погоду видимость может ухудшаться дымом, пылью или мглою.
Явления - указаны атмосферные явления, наблюдавшиеся в срок или в последний час перед сроком; фигурными скобками обозначены явления, наблюдавшиеся между сроками (за 1-3 часа до срока); квадратными скобками обозначены град или гололедные отложения с указанием их диаметра в мм.
Облачность - указаны через наклонную черту общая и нижняя облачность в баллах и высота нижней границы облаков в метрах; квадратными скобками обозначены формы облаков: Ci - перистые, Cs - перисто-слоистые, Cc - перисто-кучевые, Ac - высококучевые, As - высокослоистые, Sc - слоисто-кучевые, Ns - слоисто-дождевые, Cu - кучевые, Cb - кучево-дождевые. Подробнее классификацию облаков см. в Атласе облаков (PDF).
T - Температура воздуха - температура, измеренная на высоте 2 м над землей.
Td - Температура точки росы - температура, при понижении до которой содержащийся в воздухе водяной пар достигнет насыщения.
f - Относительная влажность воздуха - влажноcть воздуха, измеренная на высоте 2 м над землей.
Te - Эффективная температура - температура, которую ощущает одетый по сезону человек в тени. Характеристика душности погоды. При расчете учитывается влияние влажности воздуха и скорости ветра на теплоощущения человека.
Tes - Эффективная температура на солнце - температура, которую ощущает человек, с поправкой на солнечный нагрев. Характеристика знойности погоды. Зависит от высоты солнца над горизонтом, облачности и скорости ветра. Ночью, в пасмурную погоду, а также при ветре 12 м/с и более поправка равна нулю.
P - Атмосферное давление - приведенное к уровню моря атмосферное давление.
Po - Атмосферное давление - измеренное на уровне метеостанции атмосферное давление.
Tmin - Минимальная температура - минимум температуры воздуха на высоте 2 м над землей.
Tmax - Максимальная температура - максимум температуры воздуха на высоте 2 м над землей.
R - Количество осадков - Количество выпавших осадков за период времени, мм. При наведении курсора мыши на число - период времени, за который выпало указанное количество осадков.
R24 - Количество осадков - Количество выпавших осадков за 24 часа, мм.
S - Снежный покров - Высота снежного покрова, см. При наведении курсора мыши на число - состояние снежного покрова и степень покрытия местности в баллах.